#timestamp,LO_Frequency,Hit,StdDev 
1523541615.2,286046996.7,N
1523541635.0,286046997.2,N
1523541636.0,286046997.2,N
1523541655.8,286046996.9,N
1523541675.6,286046996.5,N
1523541695.5,286046997.4,N
1523541715.3,286046995.8,N
1523541735.1,286046997.7,N
1523541755.9,286046995.0,N
1523541775.7,286046995.3,N
1523541795.6,286046997.8,N
1523541815.4,286046995.1,N
1523541835.2,286046997.4,N
1523541855.1,286046997.4,N
1523541856.0,286046997.4,N
1523541875.8,286046996.8,N
1523541895.6,286046998.0,N
1523541915.5,286046995.6,N
1523541935.3,286046995.3,N
1523541955.2,286046996.3,N
1523541975.9,286046995.9,N
1523541995.7,286046996.8,N
1523542015.6,286046997.2,N
1523542035.4,286046999.5,N
1523542055.2,286046997.7,N
1523542075.1,286046999.6,N
1523542076.0,286046999.6,N
1523542095.8,286046998.4,N
1523542115.7,286046998.4,N
1523542135.5,286046996.7,N
1523542155.3,286046996.9,N
1523542175.2,286046999.4,N
1523542195.0,286046998.3,N
1523542195.9,286046998.3,N
1523542215.7,286046998.9,N
1523542235.6,286047011.9,Y
1523542255.4,286047002.4,P
1523542275.3,286047002.0,N
1523542295.1,286047004.3,N
1523542296.0,286047004.3,N
1523542315.8,286047004.4,N
1523542335.7,286047001.6,N
1523542355.5,286047001.6,N
1523542375.3,286047002.2,N
1523542395.2,286047002.2,N
1523542415.0,286047001.6,N
1523542415.9,286047001.6,N
1523542435.8,286047002.4,N
1523542455.6,286047002.8,N
1523542475.4,286047000.3,N
1523542495.3,286047001.0,N
1523542515.1,286047000.0,N
1523542535.8,286046999.7,N
1523542555.7,286047000.5,N
1523542575.5,286047000.6,N
1523542595.4,286047000.1,N
1523542615.2,286047001.7,N
1523542635.0,286047004.0,N
1523542635.9,286047004.0,N
1523542655.8,286047001.4,N
1523542675.6,286047004.3,N
1523542695.5,286047001.7,N
1523542715.3,286046999.7,N
1523542735.1,286047001.0,N
1523542755.9,286047000.3,N
1523542775.7,286046999.9,N
1523542795.5,286047000.7,N
1523542815.4,286047000.1,N
1523542835.2,286047002.0,N
1523542855.1,286047002.5,N
1523542856.0,286047002.5,N
1523542875.8,286047002.5,N
1523542895.6,286047001.5,N
1523542915.5,286047001.6,N
1523542935.3,286047003.5,N
1523542955.2,286047003.6,N
1523542975.9,286047003.2,N
1523542995.7,286047004.0,N
1523543015.6,286047002.4,N
1523543035.4,286047002.4,N
1523543055.3,286047001.5,N
1523543075.1,286047002.2,N
1523543076.0,286047002.2,N
1523543095.8,286046999.9,N
1523543115.7,286047000.2,N
1523543135.5,286047000.8,N
1523543155.3,286047000.4,N
1523543175.2,286047000.2,N
1523543195.0,286047000.3,N
1523543195.9,286047000.3,N
1523543215.8,286046998.2,N
1523543235.6,286046996.5,N
1523543255.4,286046999.1,N
1523543275.3,286046996.7,N
1523543295.1,286046998.0,N
1523543315.9,286046999.4,N
1523543335.7,286047000.9,N
1523543355.5,286046998.1,N
1523543375.4,286046999.3,N
1523543395.2,286046998.2,N
1523543415.0,286047000.4,N
1523543415.9,286047000.4,N
1523543435.8,286047002.6,N
1523543455.6,286047002.7,N
1523543475.5,286047000.6,N
1523543495.3,286047000.5,N
1523543515.1,286047000.2,N
1523543535.9,286047002.0,N
1523543555.7,286047001.8,N
1523543575.5,286047001.9,N
1523543595.4,286047002.2,N
1523543615.2,286046999.9,N
1523543635.1,286047000.0,N
1523543636.0,286047000.0,N
1523543655.8,286046998.3,N
1523543675.6,286047000.8,N
1523543695.5,286046999.0,N
1523543715.3,286046998.3,N
1523543735.1,286047000.7,N
1523543755.9,286046998.6,N
1523543775.7,286046998.2,N
1523543795.6,286047000.8,N
1523543815.4,286047001.0,N
1523543835.2,286047000.3,N
1523543855.1,286047000.2,N
1523543856.0,286047000.2,N
1523543875.8,286047000.5,N
1523543895.7,286046999.9,N
1523543915.5,286047000.2,N
1523543935.3,286047000.3,N
1523543955.2,286046999.8,N
1523543975.0,286047000.9,N
1523543975.9,286047000.9,N
1523543995.8,286047000.5,N
1523544015.6,286047000.4,N
1523544035.4,286047000.6,N
1523544055.3,286047002.6,N
1523544075.1,286047000.5,N
1523544095.9,286046999.9,N
1523544115.7,286047000.1,N
1523544135.5,286047002.2,N
1523544155.4,286047001.3,N
1523544175.2,286047002.6,N
1523544195.0,286047002.6,N
1523544195.9,286047002.6,N
1523544215.8,286047000.0,N
1523544235.6,286047001.1,N
1523544255.5,286047000.3,N
1523544275.3,286047002.8,N
1523544295.1,286047002.0,N
1523544315.9,286047002.2,N
1523544335.7,286047002.7,N
1523544355.5,286047000.3,N
1523544375.4,286047000.9,N
1523544395.2,286047000.3,N
1523544415.1,286047002.3,N
1523544416.0,286047002.3,N
1523544435.8,286047000.5,N
1523544455.6,286047002.5,N
1523544475.5,286047001.8,N
1523544495.3,286047004.3,Y
1523544515.2,286047001.6,P
1523544535.9,286047002.2,P
1523544555.7,286047002.3,P
1523544575.6,286047000.3,N
1523544595.4,286047000.8,N
1523544615.2,286046998.3,N
1523544635.1,286047001.0,N
1523544636.0,286047001.0,N
1523544655.8,286047000.8,N
1523544675.7,286047001.0,N
1523544695.5,286046998.8,N
1523544715.3,286047001.2,N
1523544735.2,286047000.0,N
1523544755.0,286047000.3,N
1523544755.9,286047000.3,N
1523544775.7,286046998.6,N
1523544795.6,286046998.4,N
1523544815.4,286046997.4,N
1523544835.3,286046997.1,N
1523544855.1,286046999.6,N
1523544875.8,286046999.6,N
1523544895.7,286046999.5,N
1523544915.5,286046999.2,N
1523544935.4,286046996.6,N
1523544955.2,286046996.5,N
1523544975.0,286046999.2,N
1523544975.9,286046999.2,N
1523544995.8,286046998.6,N
1523545015.6,286046998.1,N
1523545035.4,286046998.3,N
1523545055.3,286046998.4,N
1523545075.1,286046998.8,N
1523545095.9,286047000.6,N
1523545115.7,286047000.0,N
1523545135.5,286047000.4,N
1523545155.4,286047001.0,N
1523545175.2,286047000.3,N
1523545195.0,286047001.5,N
1523545196.0,286047001.5,N
